Location: Caltech
(34.1382°N, 118.1253°W)
Time: 13:48:50
(UTC-07:00)

Cosmos 2333 Rocket - Visible Passes

Search period start: 29 March 2015 00:00
Search period end: 08 April 2015 00:00
Orbit: 838 x 864 km, 70.9° (Epoch: 29 March)

Date Brightness Start Highest point End Pass type
(mag) Time Alt. Az. Time Alt. Az. Time Alt. Az.
29 Mar 3.7 20:02:56 10° NNE 20:06:51 19° NE 20:09:09 16° E visible
29 Mar 2.8 21:45:56 10° NNW 21:51:12 54° W 21:51:12 54° W visible
30 Mar 3.7 19:50:41 10° NNE 19:54:35 19° NE 19:57:52 13° E visible
30 Mar 2.7 21:33:41 10° NNW 21:39:19 55° WSW 21:39:55 52° SW visible
31 Mar 3.7 19:38:26 10° NNE 19:42:20 19° NE 19:46:26 10° ESE visible
31 Mar 2.7 21:21:25 10° NNW 21:27:03 55° WSW 21:28:43 41° SSW visible
01 Apr 2.8 21:09:11 10° NNW 21:14:48 55° WSW 21:17:38 28° S visible
02 Apr 2.8 20:56:55 10° NNW 21:02:33 55° WSW 21:06:39 18° S visible
03 Apr 2.9 20:44:40 10° NNW 20:50:18 55° WSW 20:55:48 10° S visible
04 Apr 2.9 20:32:25 10° NNW 20:38:03 55° WSW 20:43:37 10° S visible
05 Apr 2.9 20:20:10 10° NNW 20:25:48 55° WSW 20:31:22 10° S visible
06 Apr 3.0 20:07:55 10° NNW 20:13:33 55° WSW 20:19:06 10° S visible
07 Apr 3.0 19:55:40 10° NNW 20:01:17 55° WSW 20:06:51 10° S visible
